Regional Weather Roundup
Issued by NWS

Home | Current Version | Previous Version | Graphics & Text | Print | Product List | Glossary On
Versions: 1 2 3 4 5 6 7 8 9 10 11 12 13 14 15 16 17 18 19 20 21 22 23 24 25 26 27 28 29 30 31 32 33 34 35 36 37 38 39 40 41 42 43 44 45 46 47 48 49 50
000
ASUS43 KMKX 281300
RWRWI

WISCONSIN REGIONAL WEATHER ROUNDUP
NATIONAL WEATHER SERVICE MILWAUKEE/SULLIVAN WI
700 AM CST FRI NOV 28 2014

NOTE: "FAIR" INDICATES FEW OR NO CLOUDS BELOW 12,000 FEET WITH NO
SIGNIFICANT WEATHER AND/OR OBSTRUCTIONS TO VISIBILITY.

WIZ001-002-006>008-014>016-023>028-281400-
NORTHWEST WISCONSIN

CITY           SKY/WX    TMP DP  RH WIND       PRES   REMARKS
SUPERIOR ARPT  LGT SNOW   9   5  82 CALM      30.11F
ASHLAND        CLOUDY     8   4  83 SE3       30.13F
HAYWARD        CLOUDY     8   3  80 E6        30.06F WCI  -2
SIREN          FLURRIES  10   6  82 SE6       30.06F WCI   1
CUMBERLAND     FLURRIES   9   5  85 SE12      30.04F WCI  -6
RICE LAKE      CLOUDY    10   6  83 E7        30.09F WCI  -1
CHETEK         CLOUDY    10   6  84 E8        30.08F WCI  -3
LADYSMITH      CLOUDY     9   5  84 E9        30.10F WCI  -4
EAU CLAIRE     NOT AVBL
MENOMONIE      CLOUDY    12   8  81 E9        30.08S WCI   0
NEW RICHMOND   FLURRIES  12   8  82 SE7       30.06R WCI   2
OSCEOLA        FLURRIES  12   8  82 SE6       30.09S WCI   3
$$

WIZ003>005-009-010-017-018-281400-
NORTH CENTRAL WISCONSIN

CITY           SKY/WX    TMP DP  RH WIND       PRES   REMARKS
MANITOWISH WTR LGT SNOW   4   1  87 S5        30.08F WCI  -5
ARBOR VITAE    LGT SNOW   7   3  82 SE3       30.09F
WOODRUFF       LGT SNOW   7   3  82 SE3       30.09F
RHINELANDER    LGT SNOW   5   1  83 SE3       30.10F FOG
EAGLE RIVER    PTCLDY     6   1  77 CALM      30.10F
LAND O LAKES   CLOUDY     6   2  86 CALM      30.10F
PHILLIPS       LGT SNOW   6   2  82 SE5       30.08F WCI  -2
TOMAHAWK       LGT SNOW   5   1  85 CALM      30.11F
MEDFORD        LGT SNOW   7   3  84 SE7       30.09F WCI  -4
MERRILL        LGT SNOW   7   3  85 E6        30.13F WCI  -3
$$

WIZ029-030-035-036-043>047-281400-
CENTRAL WISCONSIN

CITY           SKY/WX    TMP DP  RH WIND       PRES   REMARKS
WAUSAU         LGT SNOW   8   4  83 SE7       30.12F FOG     WCI  -3
MOSINEE        LGT SNOW   9   7  92 E6        30.14F WCI  -1
MARSHFIELD     FLURRIES  10   5  80 SE9       30.11F WCI  -3
STEVENS POINT  CLOUDY     7   4  90 SE5       30.16F WCI  -2
WAUPACA        CLOUDY    11   6  80 SE3       30.22F
WAUTOMA        FLURRIES  12   9  85 E5        30.19F WCI   4
WISC RAPIDS    CLOUDY    10   5  80 SE7       30.16F WCI  -1
CAMP DOUGLAS   NOT AVBL
$$

WIZ011>013-019>022-031-037>040-048>050-281400-
NORTHEAST WISCONSIN

CITY           SKY/WX    TMP DP  RH WIND       PRES   REMARKS
ANTIGO         LGT SNOW   5   2  87 S5        30.14F WCI  -4
SHAWANO        CLOUDY    10   6  81 CALM      30.24F
OCONTO         CLOUDY    10   8  91 SW5       30.24F WCI   2
STURGEON BAY   CLOUDY    12   5  73 SW6       30.23F WCI   3
GREEN BAY      CLOUDY    12   7  80 S5        30.24F WCI   4
MANITOWOC      NOT AVBL
APPLETON       LGT SNOW  10   5  79 VRB5      30.22F WCI   2
CLINTONVILLE   LGT SNOW   9   5  85 CALM      30.23F
OSHKOSH        CLOUDY    13   7  77 MISG      30.22F
$$

WIZ032>034-041-042-053>061-281400-
SOUTHWEST WISCONSIN

CITY           SKY/WX    TMP DP  RH WIND       PRES   REMARKS
LA CROSSE      CLOUDY    17  10  74 SE10      30.10F WCI   5
SPARTA         CLOUDY    14   9  79 SE8       30.12F WCI   3
VIROQUA        CLOUDY    13  10  89 SE15      30.07F WCI  -3
BOSCOBEL       MOCLDY    17   9  70 VRB3      30.16F
PRAIRIE DU CHI PTCLDY    17   9  70 E10       30.14F WCI   4
PLATTEVILLE    MOCLDY    16   9  75 SE12      30.16F WCI   2
$$

WIZ056-057-062-063-064-067-068-281400-
SOUTH CENTRAL WISCONSIN

CITY           SKY/WX    TMP DP  RH WIND       PRES   REMARKS
REEDSBURG      FLURRIES  13  10  85 SE5       30.16F WCI   5
BARABOO/DELLS  CLOUDY    14  10  83 S10       30.16F WCI   1
LONE ROCK      NOT AVBL
MINERAL POINT  CLOUDY    18  10  73 SE13      30.13F WCI   4
MADISON        FLURRIES  16  11  80 S9        30.20F WCI   4
MIDDLETON      CLOUDY    17  12  78 SE8       30.20S WCI   7
WATERTOWN      LGT SNOW  14  12  90 SE6       30.23F WCI   5
MONROE         CLOUDY    18  12  79 SE12      30.19F WCI   5
JANESVILLE     CLOUDY    18  12  79 SE9       30.22  WCI   6
$$

WIZ051-052-058>065-066-070>072-281400-
SOUTHEAST WISCONSIN

CITY           SKY/WX    TMP DP  RH WIND       PRES   REMARKS
MILWAUKEE      FLURRIES  18  10  71 S8        30.25F WCI   8
WAUKESHA       LGT SNOW  14  10  85 S6        30.25F WCI   5
MILWAUKEE/TIMM CLOUDY    16  10  79 S6        30.28S WCI   7
RACINE         CLOUDY    19  11  70 S8        30.28F WCI   9
BURLINGTON     LGT SNOW  16  13  89 S3        30.26S
KENOSHA        LGT SNOW  18  13  80 S6        30.26F WCI  10
FOND DU LAC    FLURRIES  14   8  77 S7        30.22F WCI   4
SHEBOYGAN      FLURRIES  13   6  74 S5        30.25S WCI   5
WEST BEND      LGT SNOW  14  10  85 S3        30.24F
JUNEAU         SNOW      13  10  89 SE9       30.22F VSB 1/2 WCI   1
$$

LSZ147-162-281400-
LAKE SUPERIOR

STATION/POSITION TIME  TEMP    WIND        PRES    WAVE
                       AIR SEA DIR/SP/G            HT/PER
                 (UTC) (F)     (DEG/KT/KT) (MB)    (FT/S)
DEVILS ISLAND    1200   12     200/  7/  9 1022.4F
PORT WING        1200    9     160/  3/  4 1020.7
SAXON HARBOR     1240   10     180/  1/ 12 1020.3F
$$

LMZ867-665-643>646-281400-
LAKE MICHIGAN

STATION/POSITION TIME  TEMP    WIND        PRES    WAVE
                       AIR SEA DIR/SP/G            HT/PER
                 (UTC) (F)     (DEG/KT/KT) (MB)    (FT/S)
CHAMBERS ISLAND  1200   17     180/  2/  6 1024.0F
N MID LAKE BUOY  1150   19 42  240/ 10/ 14 1025.7F   1/ 3
NORTHPORT PIER   1216   15     180/  2/  5 1024.4F
ALGOMA LAKESHORE 1043             CALM       N/A
KEWAUNEE LAKESHO 1200   11     300/  2/  7 1023.9F
SHEBOYGAN LAKESH 1200   15 34  210/  9/ 11 1026.1F
PORT WASHINGTON  1200   16     230/  4/  7 1025.7F
MILWAUKEE LAKESH 1200   18     200/  9/ 11   N/A
S MID LAKE BUOY  1150   24 42  200/  6/ 10 1027.0F   2/ 6
KENOSHA   LAKESH 1200   19     190/  6/  9 1025.4F
$$

TC  - TEMPERATURE IN CELSIUS
VSB - VISIBILITY IN STATUTE MILES
WCI - WIND CHILL INDEX
HX  - HEAT INDEX



USA.gov is the U.S. government's official web portal to all federal, state and local government web resources and services.